Notices

What's New in latest Release from April 7th, 2021:

- Updated Glossary, including Speed of Maximum Gust, and Total Hourly Precipitation

- Updated national and regional climate services offices contacts and prices information

- Addition of station inventory lists for 1981-2010, 1971-2000, and 1961-1990 Normals.

If you haven't already, please take our survey and provide feedback about our website: https://eccc.sondage-survey.ca/f/LanguageSelection.aspx?s=442ca660-fcf1-47c0-95a9-59707d6fd709

Hourly Data Report for March 11, 2017

MIRAMICHI RCS
NEW BRUNSWICK

47°00'34.000" N
65°27'54.000" W
33.00 m
8100989
71744
ACQ

Download Data

Hourly Data (March 2017)
Hourly Data Report for March 11, 2017
TIME
LST
Temp Definition
°C
Dew Point Definition
°C
Rel Hum Definition
%
Precip. Amount Definition
mm

Wind Dir Definition
10's deg

Wind Spd Definition
km/h
Visibility Definition
km
Stn Press Definition
kPa
Hmdx Definition


Wind Chill Definition


Weather Definition


00:00 -15.1 -21.9 56 0.0 32 10   100.21   -21 LegendNANA
01:00 -15.9 -22.2 59 0.0 32 12   100.17   -23 LegendNANA
02:00 -16.8 -22.5 61 0.0 32 9   100.08   -23 LegendNANA
03:00 -17.6 -23.5 60 0.0 31 8   100.00   -23 LegendNANA
04:00 -18.3 -25.1 55 0.0 31 14   99.99   -27 LegendNANA
05:00 -19.0 -25.0 59 0.0 31 5   100.00   -23 LegendNANA
06:00 -19.6 -26.1 56 0.0 30 14   99.96   -28 LegendNANA
07:00 -20.1 -27.1 54 0.0 29 21   99.93   -31 LegendNANA
08:00 -19.9 -27.3 52 0.0 29 18   99.96   -30 LegendNANA
09:00 -20.4 -30.0 42 0.2 29 25   99.95   -32 LegendNANA
10:00 -19.9 -30.1 40 0.0 29 29   99.94   -32 LegendNANA
11:00 -19.4 -29.9 39 0.0 29 27   99.91   -31 LegendNANA
12:00 -19.0 -29.5 39 0.0 27 32   99.83   -32 LegendNANA
13:00 -18.2 -28.5 40 0.0 28 32   99.79   -31 LegendNANA
14:00 -17.3 -28.4 38 0.0 28 32   99.77   -29 LegendNANA
15:00 -17.4 -27.9 40 0.0 27 31   99.80   -29 LegendNANA
16:00 -17.2 -27.8 39 0.0 28 26   99.85   -28 LegendNANA
17:00 -17.7 -28.0 40 0.0 28 28   99.93   -29 LegendNANA
18:00 -18.3 -28.3 41 0.0 29 27   100.03   -30 LegendNANA
19:00 -19.0 -28.2 44 0.0 28 20   100.12   -29 LegendNANA
20:00 -19.5 -28.1 46 0.0 27 19   100.13   -30 LegendNANA
21:00 -19.9 -28.2 48 0.0 26 21   100.14   -31 LegendNANA
22:00 -20.2 -28.3 48 0.0 26 20   100.12   -31 LegendNANA
23:00 -20.3 -27.9 51 0.0 25 21   100.09   -31 LegendNANA

Notes on Data Quality.

Legend

  • E = Estimated
  • M = Missing
  • NA = Not Available*
  • [empty] = Indicates an unobserved value
Date modified: